Location: Boiro
(42.6475°N, 8.8834°W)
Time: 17:06:16
(UTC+01:00)

Transit 2A Rocket - Pass Details

Date: 09 December 2021
Orbit: 584 x 918 km, 66.7° (Epoch: 19 January)

Event Time Altitude Azimuth Distance (km) Brightness Sun altitude
Rises 10:38:04 0° 284° (WNW) 3,467 7.9 13.7°
Reaches altitude 10° 10:43:06 10° 321° (NW) 2,588 7.2 14.3°
Maximum altitude 10:44:27 11° 335° (NNW) 2,547 7.2 14.4°
Drops below altitude 10° 10:45:49 10° 348° (NNW) 2,608 7.3 14.6°
Sets 10:51:01 0° 24° (NNE) 3,564 8.2 15.2°
